VIV7305 MMSM-MMGL

Flight info

Callsign VIV7305
Flight time N/A
Altitude 38000
Route OVAGO2G OVAGO UT123 IGSON IGSON1B
Aircraft A20N/M-SDE2E3FGHIRWXY/LB1

Departure

Time 2026-04-22 23:40
Airport Felipe Ángeles International Airport (MMSM)

Arrival

Time N/A
Airport Guadalajara International Airport (MMGL)
Time Latitude Longitude Altitude Speed Heading
2026-04-22 22:27 19.73054 -99.02693 7373 ft 0 kts 319°
2026-04-22 23:20 19.73048 -99.02688 7373 ft 2 kts 319°
2026-04-22 23:20 19.73036 -99.02677 7373 ft 2 kts 319°
2026-04-22 23:21 19.73025 -99.02666 7373 ft 2 kts 319°
2026-04-22 23:21 19.73014 -99.02657 7373 ft 2 kts 319°
2026-04-22 23:21 19.73002 -99.02646 7373 ft 2 kts 334°
2026-04-22 23:21 19.72988 -99.02642 7373 ft 2 kts 360°
2026-04-22 23:22 19.72973 -99.02645 7373 ft 2 kts 25°
2026-04-22 23:22 19.72963 -99.02652 7373 ft 0 kts 46°
2026-04-22 23:22 19.72958 -99.02657 7373 ft 1 kts 50°
2026-04-22 23:22 19.72958 -99.02658 7373 ft 0 kts 50°
2026-04-22 23:25 19.72961 -99.02654 7373 ft 1 kts 49°
2026-04-22 23:25 19.72971 -99.02642 7373 ft 3 kts 48°
2026-04-22 23:25 19.72986 -99.02624 7373 ft 3 kts 49°
2026-04-22 23:25 19.73006 -99.02600 7374 ft 5 kts 50°
2026-04-22 23:26 19.73031 -99.02567 7374 ft 6 kts 52°
2026-04-22 23:26 19.73064 -99.02527 7375 ft 8 kts 47°
2026-04-22 23:26 19.73098 -99.02486 7377 ft 6 kts 49°
2026-04-22 23:26 19.73131 -99.02446 7379 ft 7 kts 48°
2026-04-22 23:27 19.73167 -99.02402 7382 ft 8 kts 49°
2026-04-22 23:27 19.73211 -99.02349 7382 ft 11 kts 50°
2026-04-22 23:27 19.73269 -99.02277 7382 ft 13 kts 49°
2026-04-22 23:27 19.73333 -99.02199 7381 ft 14 kts 49°
2026-04-22 23:28 19.73405 -99.02111 7380 ft 16 kts 49°
2026-04-22 23:28 19.73482 -99.02017 7378 ft 17 kts 49°
2026-04-22 23:28 19.73562 -99.01919 7380 ft 16 kts 48°
2026-04-22 23:28 19.73633 -99.01833 7380 ft 15 kts 49°
2026-04-22 23:29 19.73700 -99.01751 7379 ft 14 kts 49°
2026-04-22 23:29 19.73765 -99.01672 7379 ft 13 kts 49°
2026-04-22 23:29 19.73833 -99.01589 7372 ft 15 kts 48°
2026-04-22 23:29 19.73883 -99.01524 7366 ft 9 kts 66°
2026-04-22 23:30 19.73852 -99.01463 7364 ft 10 kts 140°
2026-04-22 23:30 19.73813 -99.01417 7365 ft 7 kts 104°
2026-04-22 23:30 19.73832 -99.01368 7365 ft 7 kts 51°
2026-04-22 23:30 19.73854 -99.01341 7368 ft 2 kts 49°
2026-04-22 23:31 19.73860 -99.01334 7369 ft 0 kts 50°
2026-04-22 23:31 19.73861 -99.01333 7369 ft 0 kts 50°
2026-04-22 23:31 19.73872 -99.01319 7371 ft 4 kts 49°
2026-04-22 23:31 19.73887 -99.01301 7373 ft 0 kts 50°
2026-04-22 23:32 19.73887 -99.01300 7373 ft 0 kts 50°
2026-04-22 23:32 19.73888 -99.01299 7373 ft 0 kts 50°
2026-04-22 23:32 19.73906 -99.01277 7375 ft 7 kts 50°
2026-04-22 23:32 19.73956 -99.01217 7378 ft 13 kts 49°
2026-04-22 23:33 19.74017 -99.01142 7382 ft 12 kts 50°
2026-04-22 23:33 19.74064 -99.01084 7386 ft 8 kts 50°
2026-04-22 23:33 19.74103 -99.01037 7386 ft 10 kts 49°
2026-04-22 23:33 19.74147 -99.00983 7383 ft 10 kts 50°
2026-04-22 23:34 19.74194 -99.00925 7384 ft 9 kts 49°
2026-04-22 23:34 19.74231 -99.00880 7386 ft 6 kts 50°
2026-04-22 23:34 19.74268 -99.00834 7383 ft 10 kts 49°
2026-04-22 23:34 19.74325 -99.00764 7380 ft 14 kts 49°
2026-04-22 23:35 19.74399 -99.00674 7375 ft 17 kts 49°
2026-04-22 23:35 19.74479 -99.00576 7373 ft 16 kts 48°
2026-04-22 23:35 19.74558 -99.00478 7371 ft 18 kts 49°
2026-04-22 23:35 19.74642 -99.00378 7371 ft 17 kts 48°
2026-04-22 23:36 19.74715 -99.00287 7374 ft 15 kts 49°
2026-04-22 23:36 19.74781 -99.00207 7375 ft 13 kts 49°
2026-04-22 23:36 19.74842 -99.00133 7377 ft 12 kts 50°
2026-04-22 23:36 19.74898 -99.00064 7376 ft 13 kts 49°
2026-04-22 23:37 19.74953 -98.99996 7379 ft 10 kts 49°
2026-04-22 23:37 19.74995 -98.99947 7383 ft 7 kts 49°
2026-04-22 23:37 19.75023 -98.99912 7385 ft 5 kts 51°
2026-04-22 23:37 19.75015 -98.99882 7385 ft 5 kts 136°
2026-04-22 23:38 19.75011 -98.99880 7385 ft 0 kts 139°
2026-04-22 23:38 19.75003 -98.99872 7384 ft 3 kts 138°
2026-04-22 23:39 19.74975 -98.99846 7383 ft 7 kts 139°
2026-04-22 23:39 19.74940 -98.99815 7384 ft 5 kts 146°
2026-04-22 23:39 19.74899 -98.99811 7384 ft 7 kts 213°
2026-04-22 23:39 19.74825 -98.99905 7382 ft 43 kts 229°
2026-04-22 23:40 19.74473 -99.00346 7372 ft 110 kts 226°
2026-04-22 23:40 19.73833 -99.01113 7382 ft 165 kts 232°
2026-04-22 23:40 19.73033 -99.02094 7754 ft 181 kts 232°
2026-04-22 23:40 19.72202 -99.03093 8401 ft 183 kts 232°
2026-04-22 23:41 19.71373 -99.04102 9031 ft 186 kts 233°
2026-04-22 23:41 19.70517 -99.05151 9417 ft 192 kts 233°
2026-04-22 23:41 19.69618 -99.06258 9665 ft 205 kts 233°
2026-04-22 23:41 19.68646 -99.07454 9925 ft 219 kts 233°
2026-04-22 23:42 19.67620 -99.08710 10182 ft 233 kts 233°
2026-04-22 23:42 19.66499 -99.10085 10343 ft 255 kts 233°
2026-04-22 23:42 19.65298 -99.11553 10666 ft 271 kts 232°
2026-04-22 23:42 19.64017 -99.13114 10963 ft 289 kts 232°
2026-04-22 23:43 19.62660 -99.14764 11331 ft 303 kts 232°
2026-04-22 23:43 19.61278 -99.16445 11927 ft 308 kts 232°
2026-04-22 23:43 19.59861 -99.18164 12621 ft 310 kts 231°